星链-4081 (STARLINK-4081 )

导读

STARLINK-4081是美国太空探索技术公司(SpaceX)星链(Starlink)星座中的一颗卫星,于2022年5月18日发射入轨,属于星链互联网卫星星座的组成部分。星链项目旨在通过近地轨道卫星群,为全球提供高速互联网接入服务,STARLINK-4081的入轨进一步扩充了星链星座的服务覆盖能力与网络容量。

基本信息
目录编号:
52660
目录名称:
STARLINK-4081
国际标识:
2022-053E
轨道中心:
EARTH
卫星名称:
星链-4081
卫星全名:
星链-4081 (STARLINK-4081 )
卫星状态:
在轨 (已飞行1491 天)
发射日期:
2022-05-18 UTC
国别 :
美国 (US)
星等 :
--
轨道信息
数据来源 国际轨道数据 AOE轨道数据
星历时间 2026-06-17T09:08:38+0800
12小时前
查看轨道信息
2026-06-11T01:00:00+0800
6天前
查看轨道信息
半长轴 6917.903km 6917.927km
偏心率 0.0001323 0.0001295
轨道倾角 53.161° 53.161°
近地点辐角 103.026° 92.760°
升交点赤经 67.991° 96.485°
平近点角 257.087° 14.553°
近地点 538.85km 538.894km
远地点 540.682km 540.686km
周期 95.438分钟 95.439分钟
每日圈数 15.088329 15.088249
详细信息
固有亮度:
5
最大亮度:
2.5
卫星平台:
Starlink v1.5
覆盖范围:
全球
运营商:
太空探索技术公司
运营商所在国:
美国
制造商(研发单位):
太空探索技术公司
制造商所在国:
美国
使用方式:
暂无
卫星简介
星链(Starlink)计划是由太空探索技术公司(SpaceX)提出的一个巨型低轨卫星互联网星座项目,计划在2019年至2024年间在太空搭建由约1.2万颗卫星组成的“星链”网络,其中1584颗将部署在地球上空550千米处的近地轨道,并从2020年开始工作。该卫星仍在工作。
2D轨道图
3D轨道图
轨道高度分析图
轨道倾角分析图
轨道综合分析图
查看轨道综合分析图